Tracking 30743 objects as of 22-Jun-2025
HD Live streaming from Space Station
objects crossing your sky now

SL-14 R/B

Track SL-14 R/B now!
10-day predictions


NORAD ID: 10096
Int'l Code: 1977-055B
Perigee: 571.0 km
Apogee: 629.6 km
Inclination: 75.8 °
Period: 96.5 minutes
Semi major axis: 6971 km
RCS: 3.6575 m2 (large)
Launch date: June 24, 1977
Source: Commonwealth of Independent States (former USSR) (CIS)
Launch site: PLESETSK MISSILE AND SPACE COMPLEX (PKMTR)

Note: This is a ROCKET BODY
Your satellite tracking list
Your tracking list is empty




NASA's NSSDC Master Catalog

Two Line Element Set (TLE):
1 10096U 77055B   25172.54871894  .00000385  00000-0  39925-4 0  9991
2 10096  75.8316 196.5882 0042015 305.2414  54.4849 14.91535092597631
Source of the keplerian elements: AFSPC